RYR84K LEAM-EBCI

Flight info

Callsign RYR84K
Flight time N/A
Altitude 34000
Route AGIDO M192 ARPEX DCT BAZAS M192 BLN N865 VTB N867 RBO DCT OSTIX N867 DGO L176 LUSEM DCT LULUT DCT ADABI DCT BOKNO UN858 VANAD UN874 BAMES UT191 PODEM UN873 BAZOS DCT BELDI DCT VEKIN Z173 ARVOL
Aircraft B738/M-SDE2E3FGHIRWXY/LB1

Departure

Time N/A
Airport Almería Airport (LEAM)

Arrival

Time 2026-05-05 15:15
Airport Brussels South Charleroi Airport (EBCI)
Time Latitude Longitude Altitude Speed Heading
2026-05-05 12:52 37.22995 -2.66093 23093 ft 382 kts 314°
2026-05-05 12:52 37.25051 -2.68240 23657 ft 385 kts 314°
2026-05-05 12:52 37.27124 -2.70409 24108 ft 389 kts 314°
2026-05-05 12:52 37.29186 -2.72555 24602 ft 390 kts 314°
2026-05-05 12:53 37.31297 -2.74744 25056 ft 393 kts 314°
2026-05-05 12:53 37.33419 -2.76939 25460 ft 396 kts 314°
2026-05-05 12:53 37.35555 -2.79147 25887 ft 398 kts 314°
2026-05-05 12:53 37.37702 -2.81365 26289 ft 400 kts 314°
2026-05-05 12:54 37.42005 -2.85818 27089 ft 405 kts 314°
2026-05-05 12:54 37.44184 -2.88074 27490 ft 407 kts 314°
2026-05-05 12:54 37.46379 -2.90345 27895 ft 409 kts 314°
2026-05-05 12:55 37.48589 -2.92633 28285 ft 411 kts 313°
2026-05-05 12:55 37.50807 -2.94932 28676 ft 413 kts 313°
2026-05-05 12:55 37.53001 -2.97206 29173 ft 412 kts 313°
2026-05-05 12:55 37.55211 -2.99497 29754 ft 409 kts 313°
2026-05-05 12:56 37.57402 -3.01771 30288 ft 407 kts 312°
2026-05-05 12:56 37.59589 -3.04047 30702 ft 406 kts 312°
2026-05-05 12:56 37.61770 -3.06324 31103 ft 405 kts 312°
2026-05-05 12:56 37.63940 -3.08592 31538 ft 404 kts 312°
2026-05-05 12:57 37.66101 -3.10851 31973 ft 402 kts 312°
2026-05-05 12:57 37.68251 -3.13101 32414 ft 400 kts 311°
2026-05-05 12:57 37.70378 -3.15328 32793 ft 399 kts 311°
2026-05-05 12:57 37.72514 -3.17566 33182 ft 398 kts 311°
2026-05-05 12:58 37.74645 -3.19797 33582 ft 396 kts 311°
2026-05-05 12:58 37.76771 -3.22015 33927 ft 396 kts 311°
2026-05-05 12:58 37.78883 -3.24221 33984 ft 398 kts 311°
2026-05-05 12:59 37.83160 -3.28686 34015 ft 398 kts 311°
2026-05-05 12:59 37.87437 -3.33159 34012 ft 397 kts 311°
2026-05-05 13:00 37.93785 -3.39815 34011 ft 395 kts 311°
2026-05-05 13:01 38.02208 -3.48674 34005 ft 393 kts 311°
2026-05-05 13:01 38.06415 -3.53109 33992 ft 392 kts 311°
2026-05-05 13:02 38.10596 -3.57522 33991 ft 391 kts 311°
2026-05-05 13:02 38.15256 -3.61269 34012 ft 413 kts 331°
2026-05-05 13:03 38.18110 -3.62147 33988 ft 430 kts 344°
2026-05-05 13:03 38.21156 -3.62163 34013 ft 442 kts 353°
2026-05-05 13:03 38.27280 -3.61510 34004 ft 445 kts 355°
2026-05-05 13:04 38.33469 -3.60786 33996 ft 444 kts 354°
2026-05-05 13:04 38.39607 -3.60140 33987 ft 444 kts 354°
2026-05-05 13:05 38.45749 -3.59532 33982 ft 442 kts 354°
2026-05-05 13:05 38.51878 -3.58937 33995 ft 440 kts 353°
2026-05-05 13:06 38.57966 -3.58344 33991 ft 440 kts 353°
2026-05-05 13:06 38.64075 -3.57746 33991 ft 439 kts 353°
2026-05-05 13:07 38.70281 -3.57136 33989 ft 439 kts 353°
2026-05-05 13:07 38.76260 -3.56547 33991 ft 439 kts 353°
2026-05-05 13:08 38.82354 -3.55946 33994 ft 439 kts 353°
2026-05-05 13:08 38.88452 -3.55344 33994 ft 439 kts 353°
2026-05-05 13:09 38.94524 -3.54743 33980 ft 439 kts 353°
2026-05-05 13:09 39.00623 -3.54138 33981 ft 439 kts 353°
2026-05-05 13:10 39.06725 -3.53536 33984 ft 439 kts 353°
2026-05-05 13:10 39.12777 -3.52939 33982 ft 438 kts 353°
2026-05-05 13:11 39.18875 -3.52336 33986 ft 438 kts 353°
2026-05-05 13:11 39.24958 -3.51733 33984 ft 438 kts 353°
2026-05-05 13:12 39.31044 -3.51129 33985 ft 438 kts 354°
2026-05-05 13:12 39.37091 -3.50528 33983 ft 437 kts 354°
2026-05-05 13:13 39.43157 -3.49923 33982 ft 437 kts 354°
2026-05-05 13:13 39.49191 -3.49321 33974 ft 437 kts 354°
2026-05-05 13:14 39.55253 -3.48715 33972 ft 436 kts 354°
2026-05-05 13:14 39.61318 -3.48105 33976 ft 436 kts 354°
2026-05-05 13:15 39.67369 -3.47491 33978 ft 436 kts 354°
2026-05-05 13:15 39.73390 -3.46879 33979 ft 436 kts 355°
2026-05-05 13:16 39.79466 -3.46205 33975 ft 440 kts 357°
2026-05-05 13:16 39.85562 -3.45050 33985 ft 443 kts
2026-05-05 13:17 39.91671 -3.43751 33984 ft 444 kts
2026-05-05 13:17 39.97747 -3.42489 33984 ft 445 kts
2026-05-05 13:18 40.03877 -3.41249 33987 ft 445 kts
2026-05-05 13:18 40.10014 -3.40018 33995 ft 446 kts
2026-05-05 13:19 40.16123 -3.38792 33994 ft 447 kts
2026-05-05 13:19 40.22088 -3.37591 33994 ft 448 kts
2026-05-05 13:20 40.28248 -3.36348 33967 ft 449 kts
2026-05-05 13:20 40.34433 -3.35097 33963 ft 449 kts
2026-05-05 13:21 40.40627 -3.33841 33975 ft 449 kts
2026-05-05 13:21 40.46787 -3.32591 33975 ft 449 kts
2026-05-05 13:22 40.52978 -3.31332 33975 ft 449 kts
2026-05-05 13:22 40.59118 -3.30081 33968 ft 448 kts
2026-05-05 13:23 40.65279 -3.28823 33964 ft 447 kts
2026-05-05 13:23 40.71422 -3.27567 33966 ft 445 kts
2026-05-05 13:24 40.76528 -3.26521 33952 ft 444 kts
2026-05-05 13:24 40.82600 -3.25275 33955 ft 443 kts
2026-05-05 13:25 40.88699 -3.23993 33958 ft 443 kts
2026-05-05 13:25 40.94783 -3.22621 33966 ft 443 kts
2026-05-05 13:26 41.00829 -3.21245 33959 ft 443 kts
2026-05-05 13:26 41.06912 -3.19869 33986 ft 443 kts
2026-05-05 13:27 41.13005 -3.18494 33979 ft 443 kts
2026-05-05 13:27 41.19069 -3.17124 33980 ft 444 kts
2026-05-05 13:28 41.25145 -3.15749 33978 ft 445 kts
2026-05-05 13:28 41.31258 -3.14362 33973 ft 445 kts
2026-05-05 13:29 41.37375 -3.12971 33980 ft 446 kts
2026-05-05 13:29 41.43467 -3.11583 33971 ft 446 kts
2026-05-05 13:30 41.49593 -3.10185 33978 ft 445 kts
2026-05-05 13:30 41.55675 -3.08805 33975 ft 445 kts
2026-05-05 13:31 41.61798 -3.07421 33976 ft 444 kts
2026-05-05 13:31 41.67896 -3.06038 33974 ft 444 kts
2026-05-05 13:32 41.73958 -3.04660 33981 ft 443 kts
2026-05-05 13:32 41.80017 -3.03270 33975 ft 443 kts
2026-05-05 13:33 41.86104 -3.01868 33978 ft 443 kts
2026-05-05 13:33 41.92198 -3.00462 33971 ft 443 kts
2026-05-05 13:34 41.98248 -2.99064 33970 ft 443 kts
2026-05-05 13:34 42.04339 -2.97655 33974 ft 444 kts
2026-05-05 13:35 42.10394 -2.96250 33977 ft 444 kts
2026-05-05 13:35 42.16485 -2.94835 33981 ft 444 kts
2026-05-05 13:36 42.22590 -2.93413 33989 ft 444 kts
2026-05-05 13:36 42.28693 -2.91990 33971 ft 444 kts
2026-05-05 13:37 42.34750 -2.90573 33985 ft 443 kts
2026-05-05 13:37 42.40832 -2.89144 33989 ft 444 kts
2026-05-05 13:38 42.43820 -2.87992 33979 ft 450 kts 18°
2026-05-05 13:38 42.46653 -2.86133 33987 ft 454 kts 28°
2026-05-05 13:38 42.51614 -2.80813 33995 ft 459 kts 39°
2026-05-05 13:39 42.56335 -2.74962 33993 ft 460 kts 40°
2026-05-05 13:39 42.61078 -2.69118 33985 ft 461 kts 39°
2026-05-05 13:40 42.65862 -2.63301 33985 ft 461 kts 39°
2026-05-05 13:40 42.70623 -2.57532 34002 ft 461 kts 39°
2026-05-05 13:41 42.75418 -2.51710 33992 ft 461 kts 39°
2026-05-05 13:41 42.80206 -2.45880 33987 ft 461 kts 39°
2026-05-05 13:42 42.84954 -2.40085 33984 ft 461 kts 40°
2026-05-05 13:42 42.89730 -2.34242 33991 ft 460 kts 40°
2026-05-05 13:43 42.94499 -2.28394 33994 ft 460 kts 40°
2026-05-05 13:43 42.99226 -2.22588 33993 ft 459 kts 40°
2026-05-05 13:44 43.03973 -2.16722 33991 ft 459 kts 40°
2026-05-05 13:44 43.08717 -2.10847 33993 ft 459 kts 40°
2026-05-05 13:45 43.13420 -2.05016 34004 ft 458 kts 40°
2026-05-05 13:45 43.18151 -1.99146 34002 ft 458 kts 40°
2026-05-05 13:46 43.22849 -1.93300 34013 ft 457 kts 40°
2026-05-05 13:46 43.27568 -1.87416 34019 ft 457 kts 41°
2026-05-05 13:47 43.32459 -1.81825 34013 ft 456 kts 29°
2026-05-05 13:47 43.37975 -1.77666 34019 ft 454 kts 26°
2026-05-05 13:48 43.43373 -1.73083 34025 ft 455 kts 32°
2026-05-05 13:48 43.48593 -1.68231 34018 ft 455 kts 32°
2026-05-05 13:49 43.53858 -1.63361 34022 ft 455 kts 32°
2026-05-05 13:49 43.59158 -1.58523 34017 ft 455 kts 32°
2026-05-05 13:50 43.64453 -1.53711 34006 ft 455 kts 32°
2026-05-05 13:50 43.69719 -1.48919 33995 ft 455 kts 32°
2026-05-05 13:51 43.75005 -1.44097 33978 ft 454 kts 32°
2026-05-05 13:51 43.80296 -1.39258 33978 ft 454 kts 32°
2026-05-05 13:52 43.85543 -1.34448 33975 ft 454 kts 32°
2026-05-05 13:52 43.90811 -1.29609 33970 ft 454 kts 32°
2026-05-05 13:53 43.96059 -1.24777 33969 ft 454 kts 32°
2026-05-05 13:53 44.01317 -1.19926 33963 ft 453 kts 32°
2026-05-05 13:54 44.06569 -1.15070 33960 ft 453 kts 32°
2026-05-05 13:54 44.11794 -1.10229 33962 ft 452 kts 32°
2026-05-05 13:55 44.17043 -1.05354 33960 ft 452 kts 32°
2026-05-05 13:55 44.22251 -1.00508 33957 ft 452 kts 33°
2026-05-05 13:56 44.27481 -0.95628 33959 ft 451 kts 33°
2026-05-05 13:56 44.32709 -0.90742 33960 ft 451 kts 33°
2026-05-05 13:57 44.37902 -0.85878 33957 ft 451 kts 33°
2026-05-05 13:57 44.43397 -0.81677 33964 ft 449 kts 22°
2026-05-05 13:58 44.49113 -0.78250 33952 ft 449 kts 21°
2026-05-05 13:58 44.54875 -0.74828 33950 ft 449 kts 22°
2026-05-05 13:59 44.63451 -0.69623 33954 ft 448 kts 22°
2026-05-05 14:00 44.71071 -0.64941 33962 ft 447 kts 22°
2026-05-05 14:00 44.77706 -0.60850 33961 ft 447 kts 22°
2026-05-05 14:01 44.83374 -0.57350 33962 ft 445 kts 23°
2026-05-05 14:01 44.89059 -0.53831 33959 ft 444 kts 23°
2026-05-05 14:02 44.94726 -0.50317 33951 ft 443 kts 23°
2026-05-05 14:02 45.00347 -0.46824 33934 ft 442 kts 23°
2026-05-05 14:03 45.05981 -0.43315 33935 ft 441 kts 23°
2026-05-05 14:03 45.11581 -0.39819 33934 ft 441 kts 24°
2026-05-05 14:04 45.17193 -0.36308 33921 ft 440 kts 24°
2026-05-05 14:04 45.22799 -0.32794 33918 ft 440 kts 24°
2026-05-05 14:05 45.28403 -0.29273 33916 ft 440 kts 24°
2026-05-05 14:05 45.33968 -0.25769 33916 ft 439 kts 24°
2026-05-05 14:06 45.39567 -0.22236 33912 ft 439 kts 24°
2026-05-05 14:06 45.45167 -0.18694 33910 ft 439 kts 24°
2026-05-05 14:07 45.50726 -0.15172 33907 ft 439 kts 24°
2026-05-05 14:07 45.56317 -0.11621 33907 ft 440 kts 24°
2026-05-05 14:08 45.61924 -0.08052 33906 ft 440 kts 24°
2026-05-05 14:08 45.67507 -0.04490 33904 ft 440 kts 25°
2026-05-05 14:09 45.73109 -0.00908 33926 ft 440 kts 25°
2026-05-05 14:09 45.78711 0.02681 33931 ft 440 kts 25°
2026-05-05 14:10 45.84285 0.06260 33931 ft 441 kts 25°
2026-05-05 14:10 45.89901 0.09875 33919 ft 441 kts 25°
2026-05-05 14:11 45.95473 0.13469 33907 ft 440 kts 25°
2026-05-05 14:11 46.01037 0.17065 33896 ft 440 kts 25°
2026-05-05 14:12 46.06628 0.20688 33880 ft 439 kts 25°
2026-05-05 14:12 46.11262 0.23696 33868 ft 439 kts 25°
2026-05-05 14:13 46.17734 0.27907 33871 ft 438 kts 25°
2026-05-05 14:13 46.22384 0.30940 33874 ft 438 kts 25°
2026-05-05 14:14 46.27905 0.34547 33863 ft 437 kts 25°
2026-05-05 14:14 46.33458 0.38183 33855 ft 437 kts 25°
2026-05-05 14:15 46.38997 0.41819 33859 ft 436 kts 25°
2026-05-05 14:15 46.44506 0.45444 33857 ft 436 kts 25°
2026-05-05 14:16 46.50027 0.49085 33855 ft 435 kts 26°
2026-05-05 14:16 46.55516 0.52678 33855 ft 435 kts 23°
2026-05-05 14:17 46.61370 0.55009 33854 ft 436 kts 13°
2026-05-05 14:17 46.67299 0.56856 33856 ft 435 kts 13°
2026-05-05 14:18 46.73217 0.58743 33849 ft 434 kts 14°
2026-05-05 14:18 46.79082 0.60670 33852 ft 434 kts 14°
2026-05-05 14:19 46.84973 0.62625 33842 ft 433 kts 14°
2026-05-05 14:19 46.90856 0.64582 33834 ft 433 kts 14°
2026-05-05 14:20 46.96693 0.66526 33834 ft 432 kts 14°
2026-05-05 14:20 47.02568 0.68486 33839 ft 432 kts 14°
2026-05-05 14:21 47.08540 0.69750 33853 ft 434 kts
2026-05-05 14:21 47.14581 0.70306 33845 ft 434 kts
2026-05-05 14:22 47.20581 0.70865 33844 ft 434 kts
2026-05-05 14:22 47.26618 0.71480 33857 ft 434 kts
2026-05-05 14:23 47.32655 0.72115 33861 ft 434 kts
2026-05-05 14:23 47.38654 0.72747 33854 ft 433 kts
2026-05-05 14:24 47.44667 0.73380 33852 ft 432 kts
2026-05-05 14:24 47.50638 0.74342 33848 ft 429 kts 16°
2026-05-05 14:25 47.56279 0.77015 33852 ft 427 kts 21°
2026-05-05 14:25 47.61871 0.79875 33844 ft 426 kts 21°
2026-05-05 14:26 47.67501 0.82690 33837 ft 425 kts 20°
2026-05-05 14:26 47.73124 0.85466 33830 ft 425 kts 20°
2026-05-05 14:27 47.78701 0.88221 33823 ft 424 kts 21°
2026-05-05 14:27 47.84300 0.90997 33821 ft 424 kts 21°
2026-05-05 14:28 47.89899 0.93816 33821 ft 423 kts 21°
2026-05-05 14:28 47.95458 0.96635 33841 ft 426 kts 21°
2026-05-05 14:29 48.01122 0.99511 33804 ft 430 kts 21°
2026-05-05 14:29 48.06750 1.02371 33807 ft 427 kts 21°
2026-05-05 14:30 48.12337 1.05216 33810 ft 424 kts 21°
2026-05-05 14:30 48.17915 1.08064 33818 ft 422 kts 21°
2026-05-05 14:31 48.23464 1.10901 33833 ft 420 kts 21°
2026-05-05 14:31 48.28986 1.13713 33829 ft 422 kts 21°
2026-05-05 14:32 48.34553 1.16552 33825 ft 422 kts 21°
2026-05-05 14:32 48.40118 1.19399 33834 ft 422 kts 21°
2026-05-05 14:33 48.45688 1.22256 33835 ft 422 kts 21°
2026-05-05 14:33 48.51224 1.25102 33832 ft 422 kts 21°
2026-05-05 14:34 48.56786 1.27960 33843 ft 422 kts 21°
2026-05-05 14:34 48.62330 1.30753 33839 ft 422 kts 21°
2026-05-05 14:35 48.67902 1.33553 33842 ft 422 kts 21°
2026-05-05 14:35 48.73476 1.36369 33834 ft 422 kts 21°
2026-05-05 14:36 48.79062 1.39201 33860 ft 422 kts 21°
2026-05-05 14:36 48.84605 1.42019 33856 ft 423 kts 21°
2026-05-05 14:37 48.90200 1.44870 33851 ft 424 kts 21°
2026-05-05 14:37 48.95801 1.47729 33860 ft 424 kts 21°
2026-05-05 14:38 49.01568 1.49731 33862 ft 429 kts 11°
2026-05-05 14:38 49.07504 1.50998 33856 ft 429 kts 10°
2026-05-05 14:39 49.13383 1.52309 33855 ft 428 kts 11°
2026-05-05 14:39 49.19285 1.53693 33855 ft 428 kts 11°
2026-05-05 14:40 49.25037 1.55703 33852 ft 424 kts 26°
2026-05-05 14:40 49.29923 1.60601 33859 ft 418 kts 46°
2026-05-05 14:41 49.34081 1.66773 33853 ft 419 kts 47°
2026-05-05 14:41 49.38268 1.73025 33849 ft 420 kts 46°
2026-05-05 14:42 49.42515 1.79282 33850 ft 423 kts 46°
2026-05-05 14:42 49.46758 1.85512 33857 ft 423 kts 46°
2026-05-05 14:43 49.51024 1.91793 33849 ft 423 kts 46°
2026-05-05 14:43 49.55253 1.98036 33854 ft 423 kts 46°
2026-05-05 14:44 49.59470 2.04273 33841 ft 414 kts 46°
2026-05-05 14:44 49.63587 2.10380 33855 ft 413 kts 46°
2026-05-05 14:45 49.65661 2.13464 33665 ft 415 kts 46°
2026-05-05 14:45 49.67736 2.16553 33370 ft 410 kts 46°
2026-05-05 14:45 49.69779 2.19596 32983 ft 406 kts 46°
2026-05-05 14:45 49.71779 2.22578 32613 ft 402 kts 46°
2026-05-05 14:46 49.73784 2.25572 32242 ft 398 kts 46°
2026-05-05 14:46 49.75768 2.28541 31862 ft 395 kts 46°
2026-05-05 14:46 49.77743 2.31498 31494 ft 392 kts 46°
2026-05-05 14:46 49.79697 2.34426 31130 ft 389 kts 46°
2026-05-05 14:47 49.81608 2.37295 30781 ft 387 kts 46°
2026-05-05 14:47 49.83530 2.40182 30427 ft 384 kts 46°
2026-05-05 14:47 49.85442 2.43060 30080 ft 382 kts 46°
2026-05-05 14:47 49.87351 2.45936 29693 ft 380 kts 46°
2026-05-05 14:48 49.89244 2.48790 29289 ft 377 kts 46°
2026-05-05 14:48 49.91116 2.51615 28936 ft 373 kts 46°
2026-05-05 14:48 49.92968 2.54412 28543 ft 370 kts 46°
2026-05-05 14:48 49.94814 2.57205 28187 ft 367 kts 46°
2026-05-05 14:49 49.96612 2.59929 27843 ft 364 kts 46°
2026-05-05 14:49 49.98415 2.62673 27478 ft 362 kts 46°
2026-05-05 14:49 50.00208 2.65407 27109 ft 360 kts 46°
2026-05-05 14:49 50.01991 2.68129 26754 ft 357 kts 46°
2026-05-05 14:50 50.03762 2.70837 26405 ft 355 kts 47°
2026-05-05 14:50 50.05520 2.73528 26053 ft 354 kts 47°
2026-05-05 14:50 50.07274 2.76215 25694 ft 352 kts 47°
2026-05-05 14:50 50.09016 2.78885 25349 ft 351 kts 47°
2026-05-05 14:51 50.10728 2.81513 25005 ft 349 kts 46°
2026-05-05 14:51 50.12463 2.84179 24658 ft 348 kts 46°
2026-05-05 14:51 50.14182 2.86824 24308 ft 346 kts 46°
2026-05-05 14:51 50.15894 2.89459 23967 ft 345 kts 46°
2026-05-05 14:52 50.17583 2.92061 23613 ft 344 kts 46°
2026-05-05 14:52 50.19285 2.94688 23233 ft 343 kts 46°
2026-05-05 14:52 50.20989 2.97319 22846 ft 342 kts 46°
2026-05-05 14:52 50.22681 2.99936 22485 ft 340 kts 46°
2026-05-05 14:53 50.24363 3.02536 22139 ft 338 kts 47°
2026-05-05 14:53 50.26010 3.05089 21797 ft 336 kts 47°
2026-05-05 14:53 50.27665 3.07657 21464 ft 334 kts 47°
2026-05-05 14:53 50.29313 3.10215 21130 ft 332 kts 46°
2026-05-05 14:54 50.30946 3.12752 20808 ft 329 kts 46°
2026-05-05 14:54 50.32574 3.15286 20473 ft 327 kts 46°
2026-05-05 14:54 50.34165 3.17765 20152 ft 325 kts 46°
2026-05-05 14:54 50.35768 3.20262 19826 ft 324 kts 46°
2026-05-05 14:55 50.37362 3.22748 19503 ft 322 kts 46°
2026-05-05 14:55 50.38947 3.25225 19181 ft 320 kts 46°
2026-05-05 14:55 50.40507 3.27665 18860 ft 319 kts 46°
2026-05-05 14:55 50.42079 3.30118 18543 ft 317 kts 46°
2026-05-05 14:56 50.43643 3.32554 18228 ft 316 kts 46°
2026-05-05 14:56 50.45200 3.34982 17871 ft 315 kts 46°
2026-05-05 14:56 50.46748 3.37398 17517 ft 313 kts 46°
2026-05-05 14:56 50.48285 3.39800 17175 ft 311 kts 46°
2026-05-05 14:57 50.49813 3.42189 16853 ft 309 kts 46°
2026-05-05 14:57 50.51328 3.44563 16528 ft 306 kts 46°
2026-05-05 14:57 50.52814 3.46893 16213 ft 304 kts 46°
2026-05-05 14:57 50.54263 3.49307 15879 ft 301 kts 56°
2026-05-05 14:58 50.55146 3.52233 15657 ft 293 kts 73°
2026-05-05 14:58 50.55743 3.55293 15423 ft 292 kts 75°
2026-05-05 14:58 50.56308 3.58361 15196 ft 292 kts 75°
2026-05-05 14:58 50.56680 3.60399 15035 ft 293 kts 75°
2026-05-05 14:59 50.57245 3.63481 14807 ft 293 kts 75°
2026-05-05 14:59 50.57816 3.66571 14574 ft 294 kts 75°
2026-05-05 14:59 50.58391 3.69671 14331 ft 294 kts 74°
2026-05-05 14:59 50.58967 3.72762 14106 ft 294 kts 74°
2026-05-05 15:00 50.59546 3.75859 13869 ft 295 kts 74°
2026-05-05 15:00 50.60125 3.78964 13631 ft 296 kts 74°
2026-05-05 15:00 50.60698 3.82027 13373 ft 295 kts 74°
2026-05-05 15:00 50.61275 3.85116 13126 ft 291 kts 74°
2026-05-05 15:01 50.61843 3.88163 12888 ft 288 kts 74°
2026-05-05 15:01 50.62406 3.91190 12652 ft 286 kts 74°
2026-05-05 15:01 50.62957 3.94151 12423 ft 283 kts 74°
2026-05-05 15:01 50.63508 3.97120 12197 ft 281 kts 74°
2026-05-05 15:02 50.64054 4.00065 11977 ft 280 kts 74°
2026-05-05 15:02 50.64598 4.03007 11760 ft 279 kts 74°
2026-05-05 15:02 50.65144 4.05963 11540 ft 280 kts 74°
2026-05-05 15:02 50.65684 4.08889 11318 ft 282 kts 74°
2026-05-05 15:03 50.66233 4.11869 11091 ft 283 kts 74°
2026-05-05 15:03 50.66783 4.14856 10871 ft 284 kts 74°
2026-05-05 15:03 50.67333 4.17850 10640 ft 283 kts 74°
2026-05-05 15:03 50.67877 4.20822 10414 ft 279 kts 74°
2026-05-05 15:04 50.68411 4.23752 10192 ft 276 kts 76°
2026-05-05 15:04 50.68520 4.26735 9950 ft 273 kts 100°
2026-05-05 15:04 50.67812 4.29440 9750 ft 270 kts 123°
2026-05-05 15:04 50.66503 4.31539 9514 ft 270 kts 144°
2026-05-05 15:05 50.63211 4.34401 9093 ft 271 kts 150°
2026-05-05 15:05 50.61523 4.35777 8849 ft 273 kts 150°
2026-05-05 15:05 50.59833 4.37165 8648 ft 274 kts 150°
2026-05-05 15:06 50.58154 4.38554 8437 ft 276 kts 150°
2026-05-05 15:06 50.56459 4.39963 8187 ft 275 kts 150°
2026-05-05 15:06 50.54772 4.41370 7951 ft 272 kts 150°
2026-05-05 15:06 50.53100 4.42765 7738 ft 270 kts 150°
2026-05-05 15:07 50.51447 4.44147 7529 ft 268 kts 150°
2026-05-05 15:07 50.49823 4.45503 7314 ft 265 kts 150°
2026-05-05 15:07 50.48205 4.46860 7112 ft 262 kts 148°
2026-05-05 15:07 50.46874 4.48755 6887 ft 258 kts 122°
2026-05-05 15:08 50.46198 4.51328 6713 ft 254 kts 103°
2026-05-05 15:08 50.45832 4.54041 6516 ft 253 kts 101°
2026-05-05 15:08 50.45490 4.56720 6306 ft 254 kts 101°
2026-05-05 15:08 50.45133 4.59445 6085 ft 254 kts 101°
2026-05-05 15:09 50.44767 4.62174 5902 ft 257 kts 102°
2026-05-05 15:09 50.44391 4.64941 5675 ft 259 kts 102°
2026-05-05 15:09 50.44021 4.67718 5457 ft 260 kts 97°
2026-05-05 15:09 50.44148 4.70472 5242 ft 256 kts 73°
2026-05-05 15:10 50.44793 4.73053 5063 ft 252 kts 66°
2026-05-05 15:10 50.45532 4.75549 4861 ft 250 kts 65°
2026-05-05 15:10 50.46452 4.77817 4637 ft 246 kts 43°
2026-05-05 15:10 50.47892 4.79125 4463 ft 241 kts 16°
2026-05-05 15:11 50.49551 4.79306 4279 ft 238 kts 352°
2026-05-05 15:11 50.51114 4.78482 4093 ft 235 kts 338°
2026-05-05 15:11 50.52592 4.77413 3894 ft 231 kts 335°
2026-05-05 15:11 50.53804 4.75787 3695 ft 232 kts 304°
2026-05-05 15:12 50.54165 4.73391 3510 ft 231 kts 261°
2026-05-05 15:12 50.53558 4.71105 3538 ft 226 kts 244°
2026-05-05 15:12 50.52850 4.68842 3344 ft 234 kts 245°
2026-05-05 15:12 50.52163 4.66537 3188 ft 229 kts 246°
2026-05-05 15:13 50.51519 4.64326 3024 ft 216 kts 247°
2026-05-05 15:13 50.50901 4.62195 2754 ft 213 kts 247°
2026-05-05 15:13 50.50296 4.60117 2465 ft 211 kts 247°
2026-05-05 15:13 50.49692 4.58047 2167 ft 206 kts 248°
2026-05-05 15:14 50.49105 4.56026 1905 ft 201 kts 248°
2026-05-05 15:14 50.48535 4.54066 1637 ft 194 kts 248°
2026-05-05 15:14 50.47986 4.52175 1347 ft 186 kts 247°
2026-05-05 15:14 50.47458 4.50360 1081 ft 178 kts 248°
2026-05-05 15:15 50.46968 4.48670 871 ft 162 kts 247°
2026-05-05 15:15 50.46523 4.47143 637 ft 147 kts 249°
2026-05-05 15:15 50.46140 4.45812 591 ft 108 kts 244°
2026-05-05 15:15 50.45920 4.45053 599 ft 47 kts 246°
2026-05-05 15:16 50.45837 4.44770 610 ft 24 kts 243°
2026-05-05 15:16 50.45743 4.44623 609 ft 19 kts 161°
2026-05-05 15:16 50.45709 4.44743 613 ft 11 kts 63°
2026-05-05 15:16 50.45742 4.44849 603 ft 11 kts 66°
2026-05-05 15:17 50.45771 4.44954 601 ft 10 kts 66°
2026-05-05 15:17 50.45800 4.45057 600 ft 11 kts 66°
2026-05-05 15:17 50.45831 4.45165 599 ft 11 kts 65°
2026-05-05 15:17 50.45861 4.45271 597 ft 11 kts 65°
2026-05-05 15:18 50.45896 4.45388 596 ft 13 kts 65°
2026-05-05 15:18 50.45937 4.45527 594 ft 16 kts 66°
2026-05-05 15:18 50.45987 4.45705 592 ft 19 kts 66°
2026-05-05 15:18 50.46039 4.45889 590 ft 18 kts 68°
2026-05-05 15:19 50.46065 4.46076 588 ft 17 kts 70°
2026-05-05 15:19 50.46111 4.46238 586 ft 16 kts 63°
2026-05-05 15:19 50.46143 4.46358 585 ft 9 kts 86°
2026-05-05 15:19 50.46129 4.46431 584 ft 7 kts 111°
2026-05-05 15:20 50.46101 4.46467 584 ft 0 kts 155°